This is the latest recevied weather packets stored in our database for station/object YN1JLX-13. If no packets are shown the sender has not sent any weather packets the latest 10 day(s).
| Time | Temp. | Humidity | Pressure | Rain* | Wind** | Luminosity | Snow |
|---|---|---|---|---|---|---|---|
| 1778342897 | 25° C | 55% | 1011 hPa | 0 mm | - | - | - |
| 1778342297 | 26.11° C | 55% | 1011 hPa | 0 mm | - | - | - |
| 1778341696 | 22.78° C | 59% | 1011 hPa | 0 mm | - | - | - |
| 1778341096 | 23.89° C | 59% | 1011 hPa | 0 mm | - | - | - |
| 1778340495 | 22.22° C | 59% | 1011 hPa | 0 mm | - | - | - |
| 1778339895 | 23.33° C | 59% | 1011 hPa | 0 mm | - | - | - |
| 1778339295 | 22.78° C | 58% | 1011 hPa | 0 mm | - | - | - |
| 1778338695 | 23.89° C | 58% | 1011 hPa | 0 mm | - | - | - |
| 1778338095 | 25° C | 58% | 1011 hPa | 0 mm | - | - | - |
| 1778337495 | 21.11° C | 66% | 1011 hPa | 0 mm | - | - | - |
| 1778336894 | 21.67° C | 73% | 1011 hPa | 0 mm | - | - | - |
| 1778336294 | 21.11° C | 74% | 1011 hPa | 0 mm | - | - | - |
| 1778335693 | 21.11° C | 74% | 1011 hPa | 0 mm | - | - | - |
| 1778335093 | 21.67° C | 74% | 1011 hPa | 0 mm | - | - | - |
| 1778334493 | 21.67° C | 74% | 1011 hPa | 0 mm | - | - | - |
| 1778333892 | 19.44° C | 72% | 1011 hPa | 0 mm | - | - | - |
| 1778333291 | 19.44° C | 77% | 1011 hPa | 0 mm | - | - | - |
| 1778332691 | 20.56° C | 77% | 1011 hPa | 0 mm | - | - | - |
| 1778332091 | 19.44° C | 78% | 1011 hPa | 0 mm | - | - | - |
| 1778331490 | 19.44° C | 78% | 1011 hPa | 0 mm | - | - | - |
| 1778330890 | 19.44° C | 78% | 1011 hPa | 0 mm | - | - | - |
| 1778330290 | 19.44° C | 78% | 1011 hPa | 0 mm | - | - | - |
| 1778329689 | 18.89° C | 78% | 1010 hPa | 0 mm | - | - | - |
| 1778329089 | 20° C | 78% | 1010 hPa | 0 mm | - | - | - |
| 1778328489 | 17.22° C | 80% | 1010 hPa | 0 mm | - | - | - |
* Rain latest hour (hover to see other rain measurements)
** Current wind speed in m/s (hover to see current wind gust speed)